Time,TemperatureF,DewpointF,PressureIn,WindDirection,WindDirectionDegrees,WindSpeedMPH,WindSpeedGustMPH,Humidity,HourlyPrecipIn,Conditions,Clouds,dailyrainin,SoftwareType,DateUTC
2013-06-03 00:00:00,67.9,66.4,29.75,ESE,112,0.0,0.0,95,0.00,,---,0.09,VWS V14.01,2013-06-03 03:00:00,
2013-06-03 00:30:00,67.7,66.5,29.76,ESE,112,0.0,0.0,96,0.00,,---,0.09,VWS V14.01,2013-06-03 03:30:00,
2013-06-03 01:00:00,67.5,66.3,29.76,ESE,112,0.0,0.0,96,0.00,,---,0.00,VWS V14.01,2013-06-03 04:00:00,
2013-06-03 01:30:00,67.5,66.3,29.77,ESE,112,0.0,1.0,96,0.00,,---,0.00,VWS V14.01,2013-06-03 04:30:00,
2013-06-03 02:00:00,67.4,66.2,29.78,ESE,112,0.0,0.0,96,0.00,,---,0.00,VWS V14.01,2013-06-03 05:00:00,
2013-06-03 02:30:00,68.0,67.1,29.77,ESE,112,0.0,1.0,97,0.00,,---,0.00,VWS V14.01,2013-06-03 05:30:00,
2013-06-03 03:00:00,67.5,66.3,29.76,ESE,112,0.0,0.0,96,0.00,,---,0.00,VWS V14.01,2013-06-03 06:00:00,
2013-06-03 03:30:00,67.0,66.1,29.76,ESE,112,0.0,0.0,97,0.00,,---,0.00,VWS V14.01,2013-06-03 06:30:00,
2013-06-03 04:00:00,66.5,65.6,29.75,ESE,112,0.0,0.0,97,0.00,,---,0.00,VWS V14.01,2013-06-03 07:00:00,
2013-06-03 04:30:00,66.5,65.6,29.75,ESE,112,0.0,0.0,97,0.00,,---,0.00,VWS V14.01,2013-06-03 07:30:00,
2013-06-03 05:00:00,66.9,66.0,29.75,ESE,112,0.0,0.0,97,0.00,,---,0.00,VWS V14.01,2013-06-03 08:00:00,
2013-06-03 05:30:00,66.9,66.0,29.75,ESE,112,0.0,0.0,97,0.00,,---,0.00,VWS V14.01,2013-06-03 08:30:00,
2013-06-03 06:00:00,66.9,66.0,29.75,ESE,112,0.0,0.0,97,0.00,,---,0.00,VWS V14.01,2013-06-03 09:00:00,
2013-06-03 06:30:00,67.0,66.1,29.76,ESE,112,0.0,0.0,97,0.00,,---,0.00,VWS V14.01,2013-06-03 09:30:00,
2013-06-03 07:00:00,67.1,66.2,29.77,ESE,112,0.0,0.0,97,0.00,,---,0.00,VWS V14.01,2013-06-03 10:00:00,
2013-06-03 07:30:00,67.2,66.3,29.80,ESE,112,0.0,0.0,97,0.00,,---,0.00,VWS V14.01,2013-06-03 10:30:00,
2013-06-03 08:00:00,67.3,66.4,29.81,ESE,112,0.0,0.0,97,0.06,,---,0.06,VWS V14.01,2013-06-03 11:00:00,
2013-06-03 08:30:00,67.3,66.4,29.82,ESE,112,0.0,0.0,97,0.08,,---,0.08,VWS V14.01,2013-06-03 11:30:00,
2013-06-03 09:00:00,67.5,66.6,29.81,ESE,112,0.0,0.0,97,0.08,,---,0.08,VWS V14.01,2013-06-03 12:00:00,
2013-06-03 09:30:00,67.7,66.8,29.80,ESE,112,0.0,0.0,97,0.04,,---,0.10,VWS V14.01,2013-06-03 12:30:00,
2013-06-03 10:00:00,67.4,66.5,29.79,ESE,112,0.0,0.0,97,0.03,,---,0.11,VWS V14.01,2013-06-03 13:00:00,
2013-06-03 10:30:00,67.2,66.3,29.80,ESE,112,0.0,1.0,97,0.04,,---,0.12,VWS V14.01,2013-06-03 13:30:00,
2013-06-03 11:00:00,66.9,65.7,29.81,ESE,112,0.0,1.0,96,0.02,,---,0.12,VWS V14.01,2013-06-03 14:00:00,
2013-06-03 11:30:00,66.9,65.7,29.81,ESE,112,0.0,2.0,96,0.01,,---,0.12,VWS V14.01,2013-06-03 14:30:00,
2013-06-03 12:00:00,66.9,65.7,29.81,ESE,112,0.0,1.0,96,0.02,,---,0.14,VWS V14.01,2013-06-03 15:00:00,
2013-06-03 12:30:00,67.0,65.8,29.80,ENE,68,0.0,2.0,96,0.02,,---,0.14,VWS V14.01,2013-06-03 15:30:00,
2013-06-03 13:00:00,68.5,67.3,29.79,ENE,68,0.0,4.0,96,0.02,,---,0.14,VWS V14.01,2013-06-03 16:00:00,
2013-06-03 13:30:00,69.7,67.0,29.79,SSE,158,0.0,2.0,91,0.00,,---,0.14,VWS V14.01,2013-06-03 16:30:00,
2013-06-03 14:00:00,73.0,67.5,29.78,SSE,158,0.0,2.0,83,0.00,,---,0.14,VWS V14.01,2013-06-03 17:00:00,
2013-06-03 14:30:00,73.2,68.8,29.77,SSE,158,0.0,4.0,86,0.00,,---,0.14,VWS V14.01,2013-06-03 17:30:00,
2013-06-03 15:00:00,74.7,68.8,29.75,SSE,158,0.0,2.0,82,0.00,,---,0.14,VWS V14.01,2013-06-03 18:00:00,
2013-06-03 15:30:00,75.9,68.6,29.74,SE,135,1.0,4.0,78,0.00,,---,0.14,VWS V14.01,2013-06-03 18:30:00,
2013-06-03 16:00:00,77.8,67.7,29.73,SE,135,1.0,5.0,71,0.00,,---,0.14,VWS V14.01,2013-06-03 19:00:00,
2013-06-03 16:30:00,78.2,68.0,29.73,SE,135,1.0,5.0,71,0.00,,---,0.14,VWS V14.01,2013-06-03 19:30:00,
2013-06-03 17:00:00,76.6,66.5,29.72,SE,135,1.0,4.0,71,0.00,,---,0.14,VWS V14.01,2013-06-03 20:00:00,
2013-06-03 17:30:00,78.0,67.8,29.72,South,180,1.0,4.0,71,0.00,,---,0.14,VWS V14.01,2013-06-03 20:30:00,
2013-06-03 18:00:00,77.7,66.7,29.71,South,180,1.0,6.0,69,0.00,,---,0.14,VWS V14.01,2013-06-03 21:00:00,
2013-06-03 18:30:00,77.0,66.9,29.71,South,180,0.0,4.0,71,0.00,,---,0.14,VWS V14.01,2013-06-03 21:30:00,
2013-06-03 19:00:00,76.8,61.4,29.70,South,180,1.0,5.0,59,0.00,,---,0.14,VWS V14.01,2013-06-03 22:00:00,
2013-06-03 19:30:00,76.1,60.3,29.71,ESE,112,0.0,4.0,58,0.00,,---,0.14,VWS V14.01,2013-06-03 22:30:00,
2013-06-03 20:00:00,75.1,57.3,29.72,WSW,248,0.0,3.0,54,0.00,,---,0.14,VWS V14.01,2013-06-03 23:00:00,
2013-06-03 20:30:00,73.6,56.5,29.73,WSW,248,0.0,2.0,55,0.00,,---,0.14,VWS V14.01,2013-06-03 23:30:00,
2013-06-03 21:00:00,72.0,54.0,29.74,WSW,248,0.0,3.0,53,0.00,,---,0.14,VWS V14.01,2013-06-04 00:00:00,
2013-06-03 21:30:00,69.7,53.8,29.75,SW,225,0.0,1.0,57,0.00,,---,0.14,VWS V14.01,2013-06-04 00:30:00,
2013-06-03 22:00:00,67.2,51.9,29.76,SSW,202,0.0,3.0,58,0.00,,---,0.14,VWS V14.01,2013-06-04 01:00:00,
2013-06-03 22:30:00,65.7,50.5,29.76,SSW,202,0.0,1.0,58,0.00,,---,0.14,VWS V14.01,2013-06-04 01:30:00,
2013-06-03 23:00:00,63.9,50.6,29.77,SSW,202,0.0,1.0,62,0.00,,---,0.14,VWS V14.01,2013-06-04 02:00:00,
2013-06-03 23:37:00,62.4,49.2,29.78,SSW,202,0.0,1.0,62,0.00,,---,0.14,VWS V14.01,2013-06-04 02:37:00,
2013-06-03 23:43:00,62.1,49.4,29.79,SSW,202,0.0,1.0,63,0.00,,---,0.14,VWS V14.01,2013-06-04 02:43:00,
2013-06-03 23:49:00,61.8,49.9,29.78,SSW,202,0.0,1.0,65,0.00,,---,0.14,VWS V14.01,2013-06-04 02:49:00,
2013-06-03 23:55:00,61.4,50.0,29.78,SSW,202,0.0,1.0,66,0.00,,---,0.14,VWS V14.01,2013-06-04 02:55:00,